Tracking 27107 objects as of 20-Mar-2023
HD Live streaming from Space Station
objects crossing your sky now

STARLINK-2564

Track STARLINK-2564 now!
10-day predictions
STARLINK-2564 is classified as:


NORAD ID: 48284
Int'l Code: 2021-036J
Perigee: 553.6 km
Apogee: 555.1 km
Inclination: 53.1 °
Period: 95.6 minutes
Semi major axis: 6925 km
RCS: Unknown
Launch date: April 29, 2021
Source: United States (US)
Launch site: AIR FORCE EASTERN TEST RANGE (AFETR)
Your satellite tracking list
Your tracking list is empty




NASA's NSSDC Master Catalog

Two Line Element Set (TLE):
1 48284U 21036J   23078.82771902  .00007837  00000-0  54429-3 0  9996
2 48284  53.0511 276.2455 0001073  54.5682 305.5407 15.06409156104641
Source of the keplerian elements: AFSPC